Saint Bonnet de Bellac- Haute Vienne - France
Donnes mto: samedi, 31/12/2011
Date Horaire Temp. E. Hum. E. P.atmo. Pluie Vent Direction Direction Ensoleilleme Solaire P. de rose Temp au vent Rafales
31/12/2011 00:00 10,2 C 96 % 1020,5 hPa 0,0 mm 5,4 km/h (2 Bft) O-NO 292 0 min 0 W/m 9,6 C 10,2 C 8,3 km/h (2 Bft)
31/12/2011 00:05 10,2 C 96 % 1020,5 hPa 0,0 mm 4,0 km/h (1 Bft) SO 225 0 min 0 W/m 9,6 C 10,2 C 4,0 km/h (1 Bft)
31/12/2011 00:10 10,2 C 96 % 1020,5 hPa 0,0 mm 4,3 km/h (1 Bft) O 270 0 min 0 W/m 9,6 C 10,2 C 4,3 km/h (1 Bft)
31/12/2011 00:15 10,3 C 96 % 1020,5 hPa 0,0 mm 11,2 km/h (2 Bft) O 270 0 min 0 W/m 9,7 C 10,3 C 22,3 km/h (4 Bft)
31/12/2011 00:20 10,3 C 96 % 1020,5 hPa 0,0 mm 4,7 km/h (1 Bft) NO 315 0 min 0 W/m 9,7 C 10,3 C 10,4 km/h (2 Bft)
31/12/2011 00:25 10,3 C 96 % 1020,5 hPa 0,0 mm 6,5 km/h (2 Bft) O-SO 247 0 min 0 W/m 9,7 C 10,3 C 16,6 km/h (3 Bft)
31/12/2011 00:30 10,3 C 96 % 1020,5 hPa 0,1 mm 7,2 km/h (2 Bft) O 270 0 min 0 W/m 9,7 C 10,3 C 9,4 km/h (2 Bft)
31/12/2011 00:35 10,4 C 96 % 1020,6 hPa 0,0 mm 8,6 km/h (2 Bft) O-SO 247 0 min 0 W/m 9,8 C 10,4 C 11,5 km/h (2 Bft)
31/12/2011 00:40 10,4 C 96 % 1020,4 hPa 0,0 mm 4,7 km/h (1 Bft) O-SO 247 0 min 0 W/m 9,8 C 10,4 C 9,7 km/h (2 Bft)
31/12/2011 00:45 10,4 C 96 % 1020,4 hPa 0,1 mm 5,8 km/h (2 Bft) O-SO 247 0 min 0 W/m 9,8 C 10,4 C 9,0 km/h (2 Bft)
31/12/2011 00:50 10,4 C 96 % 1020,5 hPa 0,1 mm 4,3 km/h (1 Bft) O-SO 247 0 min 0 W/m 9,8 C 10,4 C 4,3 km/h (1 Bft)
31/12/2011 00:55 10,4 C 96 % 1020,4 hPa 0,1 mm 1,8 km/h (1 Bft) O-SO 247 0 min 0 W/m 9,8 C 10,4 C 4,0 km/h (1 Bft)
31/12/2011 01:00 10,4 C 96 % 1020,4 hPa 0,1 mm 2,2 km/h (1 Bft) O-SO 247 0 min 0 W/m 9,8 C 10,4 C 4,3 km/h (1 Bft)
31/12/2011 01:05 10,4 C 96 % 1020,4 hPa 0,1 mm 2,2 km/h (1 Bft) O-SO 247 0 min 0 W/m 9,8 C 10,4 C 10,4 km/h (2 Bft)
31/12/2011 01:10 10,4 C 96 % 1020,4 hPa 0,1 mm 6,5 km/h (2 Bft) O 270 0 min 0 W/m 9,8 C 10,4 C 10,8 km/h (2 Bft)
31/12/2011 01:15 10,4 C 96 % 1020,5 hPa 0,1 mm 7,2 km/h (2 Bft) S-SO 202 0 min 0 W/m 9,8 C 10,4 C 19,1 km/h (3 Bft)
31/12/2011 01:20 10,4 C 96 % 1020,3 hPa 0,1 mm 3,2 km/h (1 Bft) O-SO 247 0 min 0 W/m 9,8 C 10,4 C 9,0 km/h (2 Bft)
31/12/2011 01:25 10,5 C 96 % 1020,3 hPa 0,0 mm 4,0 km/h (1 Bft) O-SO 247 0 min 0 W/m 9,9 C 10,5 C 4,3 km/h (1 Bft)
31/12/2011 01:30 10,5 C 96 % 1020,2 hPa 0,1 mm 4,0 km/h (1 Bft) O 270 0 min 0 W/m 9,9 C 10,5 C 11,9 km/h (2 Bft)
31/12/2011 01:35 10,5 C 96 % 1020,2 hPa 0,0 mm 0,7 km/h (0 Bft) SO 225 0 min 0 W/m 9,9 C 10,5 C 3,6 km/h (1 Bft)
31/12/2011 01:40 10,5 C 96 % 1020,2 hPa 0,0 mm 5,0 km/h (1 Bft) O-NO 292 0 min 0 W/m 9,9 C 10,5 C 13,0 km/h (3 Bft)
31/12/2011 01:45 10,5 C 96 % 1020,1 hPa 0,0 mm 1,1 km/h (1 Bft) SO 225 0 min 0 W/m 9,9 C 10,5 C 3,6 km/h (1 Bft)
31/12/2011 01:50 10,5 C 96 % 1020,0 hPa 0,0 mm 1,1 km/h (1 Bft) N 360 0 min 0 W/m 9,9 C 10,5 C 1,1 km/h (1 Bft)
31/12/2011 01:55 10,5 C 96 % 1020,1 hPa 0,0 mm 1,4 km/h (1 Bft) O-SO 247 0 min 0 W/m 9,9 C 10,5 C 5,8 km/h (2 Bft)
31/12/2011 02:02 10,6 C 96 % 1020,0 hPa 0,0 mm 0,7 km/h (0 Bft) O 270 0 min 0 W/m 10,0 C 10,6 C 4,3 km/h (1 Bft)
31/12/2011 02:05 10,6 C 96 % 1020,0 hPa 0,1 mm 5,8 km/h (2 Bft) O 270 0 min 0 W/m 10,0 C 10,6 C 5,8 km/h (2 Bft)
31/12/2011 02:10 10,6 C 96 % 1020,0 hPa 0,0 mm 4,3 km/h (1 Bft) SO 225 0 min 0 W/m 10,0 C 10,6 C 10,4 km/h (2 Bft)
31/12/2011 02:15 10,6 C 96 % 1020,0 hPa 0,0 mm 6,8 km/h (2 Bft) S-SO 202 0 min 0 W/m 10,0 C 10,6 C 20,9 km/h (4 Bft)
31/12/2011 02:20 10,6 C 96 % 1020,0 hPa 0,0 mm 7,9 km/h (2 Bft) O-SO 247 0 min 0 W/m 10,0 C 10,6 C 18,4 km/h (3 Bft)
31/12/2011 02:25 10,6 C 96 % 1020,0 hPa 0,0 mm 6,8 km/h (2 Bft) O-SO 247 0 min 0 W/m 10,0 C 10,6 C 6,8 km/h (2 Bft)
31/12/2011 02:30 10,7 C 96 % 1020,1 hPa 0,0 mm 7,9 km/h (2 Bft) O 270 0 min 0 W/m 10,1 C 10,7 C 13,0 km/h (3 Bft)
31/12/2011 02:35 10,8 C 96 % 1020,1 hPa 0,0 mm 5,0 km/h (1 Bft) O 270 0 min 0 W/m 10,2 C 10,8 C 15,5 km/h (3 Bft)
31/12/2011 02:40 10,8 C 96 % 1020,2 hPa 0,0 mm 2,9 km/h (1 Bft) O-SO 247 0 min 0 W/m 10,2 C 10,8 C 4,0 km/h (1 Bft)
31/12/2011 02:45 10,8 C 96 % 1020,1 hPa 0,0 mm 2,9 km/h (1 Bft) N 360 0 min 0 W/m 10,2 C 10,8 C 2,9 km/h (1 Bft)
31/12/2011 02:50 10,8 C 96 % 1020,2 hPa 0,0 mm 11,2 km/h (2 Bft) O-SO 247 0 min 0 W/m 10,2 C 10,8 C 23,0 km/h (4 Bft)
31/12/2011 02:55 10,8 C 96 % 1020,2 hPa 0,0 mm 5,0 km/h (1 Bft) O 270 0 min 0 W/m 10,2 C 10,8 C 10,4 km/h (2 Bft)
31/12/2011 03:00 10,8 C 96 % 1020,2 hPa 0,0 mm 1,1 km/h (1 Bft) O 270 0 min 0 W/m 10,2 C 10,8 C 6,5 km/h (2 Bft)
31/12/2011 03:05 10,8 C 96 % 1020,2 hPa 0,0 mm 8,6 km/h (2 Bft) O 270 0 min 0 W/m 10,2 C 10,8 C 11,9 km/h (2 Bft)
31/12/2011 03:10 10,8 C 96 % 1020,2 hPa 0,0 mm 6,1 km/h (2 Bft) O-SO 247 0 min 0 W/m 10,2 C 10,8 C 9,7 km/h (2 Bft)
31/12/2011 03:15 10,8 C 96 % 1020,2 hPa 0,0 mm 9,7 km/h (2 Bft) O-SO 247 0 min 0 W/m 10,2 C 10,8 C 12,6 km/h (3 Bft)
31/12/2011 03:20 10,8 C 96 % 1020,3 hPa 0,0 mm 10,8 km/h (2 Bft) O 270 0 min 0 W/m 10,2 C 10,8 C 10,8 km/h (2 Bft)
31/12/2011 03:25 10,8 C 96 % 1020,2 hPa 0,0 mm 3,6 km/h (1 Bft) O-SO 247 0 min 0 W/m 10,2 C 10,8 C 4,0 km/h (1 Bft)
31/12/2011 03:30 10,8 C 96 % 1020,1 hPa 0,0 mm 4,0 km/h (1 Bft) O 270 0 min 0 W/m 10,2 C 10,8 C 11,2 km/h (2 Bft)
31/12/2011 03:35 10,8 C 96 % 1020,1 hPa 0,0 mm 2,5 km/h (1 Bft) O-SO 247 0 min 0 W/m 10,2 C 10,8 C 13,7 km/h (3 Bft)
31/12/2011 03:40 10,8 C 96 % 1020,1 hPa 0,0 mm 8,3 km/h (2 Bft) SO 225 0 min 0 W/m 10,2 C 10,8 C 10,4 km/h (2 Bft)
31/12/2011 03:45 10,8 C 96 % 1020,0 hPa 0,0 mm 4,0 km/h (1 Bft) SO 225 0 min 0 W/m 10,2 C 10,8 C 4,0 km/h (1 Bft)
31/12/2011 03:50 10,8 C 96 % 1019,9 hPa 0,1 mm 8,3 km/h (2 Bft) O-NO 292 0 min 0 W/m 10,2 C 10,8 C 19,4 km/h (3 Bft)
31/12/2011 03:55 10,8 C 96 % 1019,8 hPa 0,0 mm 6,8 km/h (2 Bft) O 270 0 min 0 W/m 10,2 C 10,8 C 6,8 km/h (2 Bft)
31/12/2011 04:00 10,8 C 96 % 1019,8 hPa 0,0 mm 8,6 km/h (2 Bft) O-SO 247 0 min 0 W/m 10,2 C 10,8 C 11,9 km/h (2 Bft)
31/12/2011 04:05 10,8 C 96 % 1019,9 hPa 0,0 mm 2,9 km/h (1 Bft) O-SO 247 0 min 0 W/m 10,2 C 10,8 C 8,3 km/h (2 Bft)
31/12/2011 04:10 10,8 C 96 % 1019,7 hPa 0,0 mm 1,1 km/h (1 Bft) O-SO 247 0 min 0 W/m 10,2 C 10,8 C 3,2 km/h (1 Bft)
31/12/2011 04:15 10,8 C 96 % 1019,8 hPa 0,0 mm 1,8 km/h (1 Bft) O-SO 247 0 min 0 W/m 10,2 C 10,8 C 7,6 km/h (2 Bft)
31/12/2011 04:20 10,8 C 96 % 1019,7 hPa 0,0 mm 9,0 km/h (2 Bft) O 270 0 min 0 W/m 10,2 C 10,8 C 19,1 km/h (3 Bft)
31/12/2011 04:25 10,8 C 96 % 1019,7 hPa 0,0 mm 8,6 km/h (2 Bft) O 270 0 min 0 W/m 10,2 C 10,8 C 16,2 km/h (3 Bft)
31/12/2011 04:30 10,8 C 96 % 1019,8 hPa 0,0 mm 6,8 km/h (2 Bft) O 270 0 min 0 W/m 10,2 C 10,8 C 15,8 km/h (3 Bft)
31/12/2011 04:35 10,8 C 96 % 1019,7 hPa 0,0 mm 4,7 km/h (1 Bft) SO 225 0 min 0 W/m 10,2 C 10,8 C 4,7 km/h (1 Bft)
31/12/2011 04:40 10,8 C 96 % 1019,8 hPa 0,0 mm 3,6 km/h (1 Bft) O-SO 247 0 min 0 W/m 10,2 C 10,8 C 3,6 km/h (1 Bft)
31/12/2011 04:45 10,8 C 96 % 1019,7 hPa 0,0 mm 5,0 km/h (1 Bft) O-SO 247 0 min 0 W/m 10,2 C 10,8 C 12,6 km/h (3 Bft)
31/12/2011 04:50 10,8 C 96 % 1019,8 hPa 0,0 mm 7,2 km/h (2 Bft) O 270 0 min 0 W/m 10,2 C 10,8 C 17,6 km/h (3 Bft)
31/12/2011 04:55 10,8 C 96 % 1019,7 hPa 0,0 mm 1,4 km/h (1 Bft) O 270 0 min 0 W/m 10,2 C 10,8 C 4,7 km/h (1 Bft)
31/12/2011 05:00 10,8 C 96 % 1019,7 hPa 0,0 mm 8,6 km/h (2 Bft) O-SO 247 0 min 0 W/m 10,2 C 10,8 C 16,2 km/h (3 Bft)
31/12/2011 05:05 10,8 C 96 % 1019,7 hPa 0,0 mm 3,6 km/h (1 Bft) O-SO 247 0 min 0 W/m 10,2 C 10,8 C 11,2 km/h (2 Bft)
31/12/2011 05:10 10,8 C 96 % 1019,7 hPa 0,0 mm 7,6 km/h (2 Bft) SO 225 0 min 0 W/m 10,2 C 10,8 C 7,6 km/h (2 Bft)
31/12/2011 05:15 10,8 C 96 % 1019,6 hPa 0,0 mm 2,5 km/h (1 Bft) O 270 0 min 0 W/m 10,2 C 10,8 C 7,2 km/h (2 Bft)
31/12/2011 05:20 10,8 C 96 % 1019,5 hPa 0,0 mm 6,8 km/h (2 Bft) SO 225 0 min 0 W/m 10,2 C 10,8 C 18,4 km/h (3 Bft)
31/12/2011 05:25 10,8 C 96 % 1019,4 hPa 0,0 mm 3,2 km/h (1 Bft) O 270 0 min 0 W/m 10,2 C 10,8 C 8,3 km/h (2 Bft)
31/12/2011 05:30 10,8 C 96 % 1019,5 hPa 0,0 mm 1,4 km/h (1 Bft) O-SO 247 0 min 0 W/m 10,2 C 10,8 C 2,9 km/h (1 Bft)
31/12/2011 05:35 10,8 C 96 % 1019,3 hPa 0,0 mm 2,9 km/h (1 Bft) O-SO 247 0 min 0 W/m 10,2 C 10,8 C 6,5 km/h (2 Bft)
31/12/2011 05:40 10,8 C 96 % 1019,3 hPa 0,0 mm 4,0 km/h (1 Bft) NO 315 0 min 0 W/m 10,2 C 10,8 C 11,2 km/h (2 Bft)
31/12/2011 05:45 10,8 C 96 % 1019,3 hPa 0,0 mm 7,9 km/h (2 Bft) O-SO 247 0 min 0 W/m 10,2 C 10,8 C 19,4 km/h (3 Bft)
31/12/2011 05:50 10,8 C 96 % 1019,3 hPa 0,0 mm 2,9 km/h (1 Bft) SO 225 0 min 0 W/m 10,2 C 10,8 C 2,9 km/h (1 Bft)
31/12/2011 05:55 10,8 C 96 % 1019,3 hPa 0,1 mm 5,0 km/h (1 Bft) O-SO 247 0 min 0 W/m 10,2 C 10,8 C 11,9 km/h (2 Bft)
31/12/2011 06:00 10,8 C 96 % 1019,3 hPa 0,0 mm 6,5 km/h (2 Bft) O-SO 247 0 min 0 W/m 10,2 C 10,8 C 10,4 km/h (2 Bft)
31/12/2011 06:05 10,8 C 96 % 1019,2 hPa 0,0 mm 8,6 km/h (2 Bft) O 270 0 min 0 W/m 10,2 C 10,8 C 12,6 km/h (3 Bft)
31/12/2011 06:10 10,8 C 96 % 1019,2 hPa 0,0 mm 8,3 km/h (2 Bft) O-SO 247 0 min 0 W/m 10,2 C 10,8 C 17,3 km/h (3 Bft)
31/12/2011 06:15 10,8 C 96 % 1019,2 hPa 0,0 mm 3,6 km/h (1 Bft) O-SO 247 0 min 0 W/m 10,2 C 10,8 C 8,6 km/h (2 Bft)
31/12/2011 06:20 10,8 C 96 % 1019,3 hPa 0,0 mm 6,5 km/h (2 Bft) SO 225 0 min 0 W/m 10,2 C 10,8 C 10,4 km/h (2 Bft)
31/12/2011 06:25 10,8 C 96 % 1019,3 hPa 0,0 mm 6,5 km/h (2 Bft) O-NO 292 0 min 0 W/m 10,2 C 10,8 C 10,1 km/h (2 Bft)
31/12/2011 06:30 10,8 C 96 % 1019,3 hPa 0,0 mm 3,2 km/h (1 Bft) O-NO 292 0 min 0 W/m 10,2 C 10,8 C 12,6 km/h (3 Bft)
31/12/2011 06:35 10,8 C 96 % 1019,3 hPa 0,0 mm 4,7 km/h (1 Bft) SO 225 0 min 0 W/m 10,2 C 10,8 C 6,8 km/h (2 Bft)
31/12/2011 06:40 10,8 C 96 % 1019,4 hPa 0,0 mm 5,4 km/h (2 Bft) O-SO 247 0 min 0 W/m 10,2 C 10,8 C 8,3 km/h (2 Bft)
31/12/2011 06:45 10,8 C 96 % 1019,3 hPa 0,0 mm 7,2 km/h (2 Bft) O 270 0 min 0 W/m 10,2 C 10,8 C 7,9 km/h (2 Bft)
31/12/2011 06:50 10,8 C 96 % 1019,4 hPa 0,0 mm 1,4 km/h (1 Bft) O-SO 247 0 min 0 W/m 10,2 C 10,8 C 4,3 km/h (1 Bft)
31/12/2011 06:55 10,8 C 96 % 1019,3 hPa 0,0 mm 1,1 km/h (1 Bft) SO 225 0 min 0 W/m 10,2 C 10,8 C 4,0 km/h (1 Bft)
31/12/2011 07:00 10,8 C 96 % 1019,4 hPa 0,0 mm 3,2 km/h (1 Bft) O-SO 247 0 min 0 W/m 10,2 C 10,8 C 3,2 km/h (1 Bft)
31/12/2011 07:05 10,8 C 96 % 1019,5 hPa 0,0 mm 7,2 km/h (2 Bft) O-SO 247 0 min 0 W/m 10,2 C 10,8 C 25,9 km/h (4 Bft)
31/12/2011 07:10 10,8 C 96 % 1019,4 hPa 0,0 mm 3,2 km/h (1 Bft) S-SE 157 0 min 0 W/m 10,2 C 10,8 C 8,3 km/h (2 Bft)
31/12/2011 07:15 10,8 C 96 % 1019,4 hPa 0,0 mm 3,2 km/h (1 Bft) O-SO 247 0 min 0 W/m 10,2 C 10,8 C 6,1 km/h (2 Bft)
31/12/2011 07:20 10,8 C 96 % 1019,4 hPa 0,0 mm 4,3 km/h (1 Bft) O-SO 247 0 min 0 W/m 10,2 C 10,8 C 13,0 km/h (3 Bft)
31/12/2011 07:25 10,8 C 96 % 1019,3 hPa 0,0 mm 1,1 km/h (1 Bft) O 270 0 min 0 W/m 10,2 C 10,8 C 8,6 km/h (2 Bft)
31/12/2011 07:30 10,8 C 96 % 1019,3 hPa 0,0 mm 6,5 km/h (2 Bft) O-NO 292 0 min 0 W/m 10,2 C 10,8 C 11,5 km/h (2 Bft)
31/12/2011 07:35 10,9 C 96 % 1019,4 hPa 0,0 mm 2,9 km/h (1 Bft) O 270 0 min 0 W/m 10,3 C 10,9 C 2,9 km/h (1 Bft)
31/12/2011 07:40 10,9 C 96 % 1019,5 hPa 0,0 mm 3,6 km/h (1 Bft) O-SO 247 0 min 0 W/m 10,3 C 10,9 C 3,6 km/h (1 Bft)
31/12/2011 07:45 10,9 C 96 % 1019,6 hPa 0,0 mm 5,0 km/h (1 Bft) O-SO 247 0 min 0 W/m 10,3 C 10,9 C 9,4 km/h (2 Bft)
31/12/2011 07:50 10,9 C 96 % 1019,7 hPa 0,0 mm 3,2 km/h (1 Bft) SO 225 0 min 0 W/m 10,3 C 10,9 C 3,2 km/h (1 Bft)
31/12/2011 07:55 10,9 C 96 % 1019,7 hPa 0,0 mm 3,6 km/h (1 Bft) O 270 0 min 0 W/m 10,3 C 10,9 C 9,0 km/h (2 Bft)
31/12/2011 08:00 10,9 C 96 % 1019,7 hPa 0,0 mm 9,4 km/h (2 Bft) O 270 0 min 0 W/m 10,3 C 10,9 C 15,8 km/h (3 Bft)
31/12/2011 08:05 10,9 C 96 % 1019,9 hPa 0,0 mm 5,8 km/h (2 Bft) O-SO 247 0 min 0 W/m 10,3 C 10,9 C 12,2 km/h (2 Bft)
31/12/2011 08:10 10,9 C 96 % 1019,9 hPa 0,0 mm 4,3 km/h (1 Bft) O-SO 247 0 min 0 W/m 10,3 C 10,9 C 11,9 km/h (2 Bft)
31/12/2011 08:15 10,9 C 96 % 1020,0 hPa 0,0 mm 3,6 km/h (1 Bft) O 270 0 min 0 W/m 10,3 C 10,9 C 9,7 km/h (2 Bft)
31/12/2011 08:20 10,9 C 96 % 1020,0 hPa 0,0 mm 4,7 km/h (1 Bft) O 270 0 min 0 W/m 10,3 C 10,9 C 12,6 km/h (3 Bft)
31/12/2011 08:25 10,9 C 96 % 1020,2 hPa 0,0 mm 6,1 km/h (2 Bft) O 270 0 min 0 W/m 10,3 C 10,9 C 11,2 km/h (2 Bft)
31/12/2011 08:30 10,9 C 96 % 1020,3 hPa 0,0 mm 4,0 km/h (1 Bft) O 270 0 min 0 W/m 10,3 C 10,9 C 8,3 km/h (2 Bft)
31/12/2011 08:35 10,9 C 96 % 1020,4 hPa 0,0 mm 6,5 km/h (2 Bft) O 270 0 min 0 W/m 10,3 C 10,9 C 6,5 km/h (2 Bft)
31/12/2011 08:40 10,8 C 96 % 1020,5 hPa 0,0 mm 10,4 km/h (2 Bft) O-SO 247 0 min 0 W/m 10,2 C 10,8 C 23,0 km/h (4 Bft)
31/12/2011 08:45 10,9 C 96 % 1020,6 hPa 0,0 mm 5,0 km/h (1 Bft) O-SO 247 0 min 0 W/m 10,3 C 10,9 C 5,0 km/h (1 Bft)
31/12/2011 08:50 10,8 C 96 % 1020,3 hPa 0,0 mm 0,0 km/h (0 Bft) O-SO 247 0 min 0 W/m 10,2 C 10,8 C 2,9 km/h (1 Bft)
31/12/2011 08:55 10,8 C 96 % 1020,4 hPa 0,0 mm 1,8 km/h (1 Bft) O 270 0 min 0 W/m 10,2 C 10,8 C 1,8 km/h (1 Bft)
31/12/2011 09:00 10,8 C 96 % 1020,4 hPa 0,0 mm 6,8 km/h (2 Bft) O 270 0 min 0 W/m 10,2 C 10,8 C 6,8 km/h (2 Bft)
31/12/2011 09:05 10,8 C 96 % 1020,4 hPa 0,0 mm 6,8 km/h (2 Bft) O-SO 247 0 min 0 W/m 10,2 C 10,8 C 13,0 km/h (3 Bft)
31/12/2011 09:10 10,8 C 96 % 1020,4 hPa 0,0 mm 5,0 km/h (1 Bft) O-SO 247 0 min 0 W/m 10,2 C 10,8 C 12,2 km/h (2 Bft)
31/12/2011 09:15 10,8 C 96 % 1020,4 hPa 0,0 mm 6,1 km/h (2 Bft) O-SO 247 0 min 0 W/m 10,2 C 10,8 C 6,1 km/h (2 Bft)
31/12/2011 09:20 10,8 C 96 % 1020,4 hPa 0,1 mm 0,0 km/h (0 Bft) O-SO 247 0 min 0 W/m 10,2 C 10,8 C 0,0 km/h (0 Bft)
31/12/2011 09:25 10,8 C 96 % 1020,5 hPa 0,0 mm 1,1 km/h (1 Bft) SO 225 0 min 0 W/m 10,2 C 10,8 C 6,8 km/h (2 Bft)
31/12/2011 09:30 10,8 C 96 % 1020,5 hPa 0,1 mm 7,9 km/h (2 Bft) O 270 0 min 0 W/m 10,2 C 10,8 C 14,4 km/h (3 Bft)
31/12/2011 09:35 10,8 C 96 % 1020,6 hPa 0,1 mm 2,2 km/h (1 Bft) O 270 0 min 0 W/m 10,2 C 10,8 C 4,3 km/h (1 Bft)
31/12/2011 09:40 10,8 C 96 % 1020,6 hPa 0,0 mm 0,4 km/h (0 Bft) O 270 0 min 0 W/m 10,2 C 10,8 C 0,4 km/h (0 Bft)
31/12/2011 09:45 10,8 C 96 % 1020,6 hPa 0,0 mm 0,7 km/h (0 Bft) O 270 0 min 0 W/m 10,2 C 10,8 C 3,6 km/h (1 Bft)
31/12/2011 09:50 10,8 C 96 % 1020,7 hPa 0,0 mm 2,5 km/h (1 Bft) O-SO 247 0 min 0 W/m 10,2 C 10,8 C 7,6 km/h (2 Bft)
31/12/2011 09:55 10,8 C 96 % 1020,7 hPa 0,0 mm 1,4 km/h (1 Bft) O-NO 292 0 min 0 W/m 10,2 C 10,8 C 6,1 km/h (2 Bft)
31/12/2011 10:00 10,8 C 96 % 1020,7 hPa 0,0 mm 5,4 km/h (2 Bft) O 270 0 min 0 W/m 10,2 C 10,8 C 12,2 km/h (2 Bft)
31/12/2011 10:05 10,8 C 96 % 1020,7 hPa 0,1 mm 1,4 km/h (1 Bft) O 270 0 min 0 W/m 10,2 C 10,8 C 3,2 km/h (1 Bft)
31/12/2011 10:10 10,8 C 96 % 1020,8 hPa 0,0 mm 2,5 km/h (1 Bft) O-NO 292 0 min 0 W/m 10,2 C 10,8 C 9,4 km/h (2 Bft)
31/12/2011 10:15 10,9 C 96 % 1020,8 hPa 0,0 mm 5,0 km/h (1 Bft) O 270 0 min 0 W/m 10,3 C 10,9 C 5,0 km/h (1 Bft)
31/12/2011 10:20 10,9 C 96 % 1020,9 hPa 0,0 mm 1,1 km/h (1 Bft) O-SO 247 0 min 0 W/m 10,3 C 10,9 C 3,6 km/h (1 Bft)
31/12/2011 10:25 10,9 C 96 % 1020,9 hPa 0,0 mm 4,0 km/h (1 Bft) O 270 0 min 0 W/m 10,3 C 10,9 C 7,9 km/h (2 Bft)
31/12/2011 10:30 10,9 C 96 % 1021,0 hPa 0,0 mm 5,4 km/h (2 Bft) O 270 0 min 0 W/m 10,3 C 10,9 C 5,4 km/h (2 Bft)
31/12/2011 10:35 10,9 C 96 % 1021,1 hPa 0,0 mm 6,5 km/h (2 Bft) O-SO 247 0 min 0 W/m 10,3 C 10,9 C 13,3 km/h (3 Bft)
31/12/2011 10:40 10,9 C 96 % 1021,1 hPa 0,0 mm 3,6 km/h (1 Bft) SO 225 0 min 0 W/m 10,3 C 10,9 C 5,8 km/h (2 Bft)
31/12/2011 10:45 11,1 C 96 % 1021,2 hPa 0,0 mm 4,7 km/h (1 Bft) SO 225 0 min 0 W/m 10,5 C 11,1 C 8,3 km/h (2 Bft)
31/12/2011 10:50 11,1 C 96 % 1021,2 hPa 0,1 mm 5,8 km/h (2 Bft) O-NO 292 0 min 0 W/m 10,5 C 11,1 C 16,2 km/h (3 Bft)
31/12/2011 10:55 11,1 C 96 % 1021,2 hPa 0,0 mm 2,5 km/h (1 Bft) O-SO 247 0 min 0 W/m 10,5 C 11,1 C 7,6 km/h (2 Bft)
31/12/2011 11:00 11,1 C 96 % 1021,2 hPa 0,0 mm 4,3 km/h (1 Bft) NO 315 0 min 0 W/m 10,5 C 11,1 C 8,6 km/h (2 Bft)
31/12/2011 11:05 11,2 C 96 % 1021,3 hPa 0,0 mm 0,7 km/h (0 Bft) O-SO 247 0 min 0 W/m 10,6 C 11,2 C 3,6 km/h (1 Bft)
31/12/2011 11:10 11,2 C 96 % 1021,3 hPa 0,0 mm 6,1 km/h (2 Bft) O 270 0 min 0 W/m 10,6 C 11,2 C 7,6 km/h (2 Bft)
31/12/2011 11:15 11,3 C 96 % 1021,4 hPa 0,1 mm 1,8 km/h (1 Bft) O 270 0 min 0 W/m 10,7 C 11,3 C 4,3 km/h (1 Bft)
31/12/2011 11:20 11,3 C 96 % 1021,4 hPa 0,0 mm 1,1 km/h (1 Bft) O 270 0 min 0 W/m 10,7 C 11,3 C 1,1 km/h (1 Bft)
31/12/2011 11:25 11,3 C 96 % 1021,4 hPa 0,0 mm 1,4 km/h (1 Bft) O 270 0 min 0 W/m 10,7 C 11,3 C 1,4 km/h (1 Bft)
31/12/2011 11:30 11,3 C 96 % 1021,4 hPa 0,0 mm 2,5 km/h (1 Bft) SO 225 0 min 0 W/m 10,7 C 11,3 C 4,3 km/h (1 Bft)
31/12/2011 11:35 11,4 C 96 % 1021,3 hPa 0,1 mm 1,8 km/h (1 Bft) O-SO 247 0 min 0 W/m 10,8 C 11,4 C 7,2 km/h (2 Bft)
31/12/2011 11:40 11,4 C 96 % 1021,3 hPa 0,0 mm 3,2 km/h (1 Bft) O-SO 247 0 min 0 W/m 10,8 C 11,4 C 3,2 km/h (1 Bft)
31/12/2011 11:45 11,4 C 96 % 1021,3 hPa 0,0 mm 5,4 km/h (2 Bft) SO 225 0 min 0 W/m 10,8 C 11,4 C 15,8 km/h (3 Bft)
31/12/2011 11:50 11,5 C 96 % 1021,2 hPa 0,1 mm 2,2 km/h (1 Bft) O-SO 247 0 min 0 W/m 10,9 C 11,5 C 4,3 km/h (1 Bft)
31/12/2011 11:55 11,6 C 96 % 1021,1 hPa 0,0 mm 3,6 km/h (1 Bft) O 270 0 min 0 W/m 11,0 C 11,6 C 15,1 km/h (3 Bft)
31/12/2011 12:00 11,6 C 96 % 1021,1 hPa 0,0 mm 1,8 km/h (1 Bft) O-SO 247 0 min 0 W/m 11,0 C 11,6 C 1,8 km/h (1 Bft)
31/12/2011 12:05 11,6 C 96 % 1021,2 hPa 0,0 mm 3,2 km/h (1 Bft) O 270 0 min 0 W/m 11,0 C 11,6 C 9,7 km/h (2 Bft)
31/12/2011 12:10 11,6 C 96 % 1021,1 hPa 0,0 mm 1,4 km/h (1 Bft) O-SO 247 0 min 0 W/m 11,0 C 11,6 C 4,0 km/h (1 Bft)
31/12/2011 12:15 11,7 C 96 % 1021,1 hPa 0,0 mm 3,6 km/h (1 Bft) NO 315 0 min 0 W/m 11,1 C 11,7 C 8,3 km/h (2 Bft)
31/12/2011 12:20 11,7 C 96 % 1021,1 hPa 0,0 mm 4,3 km/h (1 Bft) SO 225 0 min 0 W/m 11,1 C 11,7 C 4,3 km/h (1 Bft)
31/12/2011 12:25 11,7 C 96 % 1021,1 hPa 0,0 mm 0,4 km/h (0 Bft) O-SO 247 0 min 0 W/m 11,1 C 11,7 C 6,8 km/h (2 Bft)
31/12/2011 12:30 11,7 C 96 % 1021,0 hPa 0,0 mm 4,0 km/h (1 Bft) O-SO 247 0 min 0 W/m 11,1 C 11,7 C 12,2 km/h (2 Bft)
31/12/2011 12:35 11,7 C 96 % 1021,1 hPa 0,0 mm 2,2 km/h (1 Bft) O 270 0 min 0 W/m 11,1 C 11,7 C 3,6 km/h (1 Bft)
31/12/2011 12:40 11,7 C 96 % 1021,0 hPa 0,1 mm 5,8 km/h (2 Bft) O 270 0 min 0 W/m 11,1 C 11,7 C 14,4 km/h (3 Bft)
31/12/2011 12:45 11,7 C 96 % 1020,9 hPa 0,0 mm 2,9 km/h (1 Bft) O-SO 247 0 min 0 W/m 11,1 C 11,7 C 8,6 km/h (2 Bft)
31/12/2011 12:50 11,8 C 96 % 1020,8 hPa 0,0 mm 0,4 km/h (0 Bft) O 270 0 min 0 W/m 11,2 C 11,8 C 4,0 km/h (1 Bft)
31/12/2011 12:55 11,8 C 96 % 1020,8 hPa 0,0 mm 2,2 km/h (1 Bft) O-SO 247 0 min 0 W/m 11,2 C 11,8 C 4,0 km/h (1 Bft)
31/12/2011 13:00 11,9 C 96 % 1020,8 hPa 0,1 mm 3,2 km/h (1 Bft) O 270 0 min 0 W/m 11,3 C 11,9 C 9,4 km/h (2 Bft)
31/12/2011 13:05 11,9 C 96 % 1020,7 hPa 0,0 mm 5,0 km/h (1 Bft) SO 225 0 min 0 W/m 11,3 C 11,9 C 6,1 km/h (2 Bft)
31/12/2011 13:10 11,9 C 96 % 1020,6 hPa 0,1 mm 5,4 km/h (2 Bft) O-SO 247 0 min 0 W/m 11,3 C 11,9 C 9,4 km/h (2 Bft)
31/12/2011 13:15 11,9 C 96 % 1020,7 hPa 0,0 mm 7,2 km/h (2 Bft) SO 225 0 min 0 W/m 11,3 C 11,9 C 11,9 km/h (2 Bft)
31/12/2011 13:20 11,9 C 96 % 1020,6 hPa 0,0 mm 6,1 km/h (2 Bft) O-SO 247 0 min 0 W/m 11,3 C 11,9 C 11,9 km/h (2 Bft)
31/12/2011 13:25 11,9 C 96 % 1020,6 hPa 0,0 mm 0,0 km/h (0 Bft) O-SO 247 0 min 0 W/m 11,3 C 11,9 C 1,4 km/h (1 Bft)
31/12/2011 13:30 11,9 C 96 % 1020,6 hPa 0,1 mm 7,6 km/h (2 Bft) O 270 0 min 0 W/m 11,3 C 11,9 C 18,7 km/h (3 Bft)
31/12/2011 13:35 11,9 C 96 % 1020,6 hPa 0,0 mm 7,2 km/h (2 Bft) O-SO 247 0 min 0 W/m 11,3 C 11,9 C 8,6 km/h (2 Bft)
31/12/2011 13:40 11,8 C 96 % 1020,5 hPa 0,0 mm 4,3 km/h (1 Bft) O-NO 292 0 min 0 W/m 11,2 C 11,8 C 13,7 km/h (3 Bft)
31/12/2011 13:45 11,8 C 96 % 1020,5 hPa 0,0 mm 5,4 km/h (2 Bft) S-SO 202 0 min 0 W/m 11,2 C 11,8 C 11,9 km/h (2 Bft)
31/12/2011 13:50 11,8 C 96 % 1020,5 hPa 0,0 mm 2,2 km/h (1 Bft) S-SO 202 0 min 0 W/m 11,2 C 11,8 C 6,5 km/h (2 Bft)
31/12/2011 13:55 11,8 C 96 % 1020,5 hPa 0,0 mm 3,2 km/h (1 Bft) O-SO 247 0 min 0 W/m 11,2 C 11,8 C 7,9 km/h (2 Bft)
31/12/2011 14:00 11,7 C 96 % 1020,5 hPa 0,0 mm 5,4 km/h (2 Bft) SO 225 0 min 0 W/m 11,1 C 11,7 C 7,9 km/h (2 Bft)
31/12/2011 14:05 11,6 C 96 % 1020,5 hPa 0,0 mm 2,5 km/h (1 Bft) O-SO 247 0 min 0 W/m 11,0 C 11,6 C 3,2 km/h (1 Bft)
31/12/2011 14:10 11,6 C 96 % 1020,5 hPa 0,0 mm 2,2 km/h (1 Bft) SO 225 0 min 0 W/m 11,0 C 11,6 C 4,0 km/h (1 Bft)
31/12/2011 14:15 11,6 C 96 % 1020,4 hPa 0,0 mm 5,8 km/h (2 Bft) S-SO 202 0 min 0 W/m 11,0 C 11,6 C 9,0 km/h (2 Bft)
31/12/2011 14:20 11,6 C 96 % 1020,5 hPa 0,0 mm 1,8 km/h (1 Bft) O 270 0 min 0 W/m 11,0 C 11,6 C 1,8 km/h (1 Bft)
31/12/2011 14:25 11,6 C 96 % 1020,4 hPa 0,1 mm 3,6 km/h (1 Bft) O-SO 247 0 min 0 W/m 11,0 C 11,6 C 7,9 km/h (2 Bft)
31/12/2011 14:30 11,6 C 96 % 1020,4 hPa 0,0 mm 4,0 km/h (1 Bft) O-SO 247 0 min 0 W/m 11,0 C 11,6 C 9,7 km/h (2 Bft)
31/12/2011 14:35 11,6 C 96 % 1020,3 hPa 0,0 mm 2,5 km/h (1 Bft) O-SO 247 0 min 0 W/m 11,0 C 11,6 C 4,3 km/h (1 Bft)
31/12/2011 14:40 11,6 C 96 % 1020,4 hPa 0,0 mm 4,0 km/h (1 Bft) O 270 0 min 0 W/m 11,0 C 11,6 C 4,0 km/h (1 Bft)
31/12/2011 14:45 11,6 C 96 % 1020,4 hPa 0,0 mm 8,3 km/h (2 Bft) O-SO 247 0 min 0 W/m 11,0 C 11,6 C 14,4 km/h (3 Bft)
31/12/2011 14:50 11,6 C 96 % 1020,4 hPa 0,0 mm 0,7 km/h (0 Bft) O-SO 247 0 min 0 W/m 11,0 C 11,6 C 2,9 km/h (1 Bft)
31/12/2011 14:55 11,6 C 96 % 1020,3 hPa 0,0 mm 4,7 km/h (1 Bft) SO 225 0 min 0 W/m 11,0 C 11,6 C 11,9 km/h (2 Bft)
31/12/2011 15:00 11,6 C 96 % 1020,2 hPa 0,0 mm 1,4 km/h (1 Bft) S-SO 202 0 min 0 W/m 11,0 C 11,6 C 1,4 km/h (1 Bft)
31/12/2011 15:05 11,6 C 96 % 1020,2 hPa 0,0 mm 1,1 km/h (1 Bft) O-SO 247 0 min 0 W/m 11,0 C 11,6 C 1,1 km/h (1 Bft)
31/12/2011 15:10 11,6 C 96 % 1020,3 hPa 0,0 mm 2,2 km/h (1 Bft) SO 225 0 min 0 W/m 11,0 C 11,6 C 4,3 km/h (1 Bft)
31/12/2011 15:15 11,6 C 96 % 1020,2 hPa 0,0 mm 1,4 km/h (1 Bft) O 270 0 min 0 W/m 11,0 C 11,6 C 4,0 km/h (1 Bft)
31/12/2011 15:20 11,6 C 96 % 1020,2 hPa 0,0 mm 5,4 km/h (2 Bft) SO 225 0 min 0 W/m 11,0 C 11,6 C 14,0 km/h (3 Bft)
31/12/2011 15:25 11,7 C 96 % 1020,2 hPa 0,0 mm 0,4 km/h (0 Bft) O 270 0 min 0 W/m 11,1 C 11,7 C 3,2 km/h (1 Bft)
31/12/2011 15:30 11,7 C 96 % 1020,2 hPa 0,0 mm 3,2 km/h (1 Bft) O-SO 247 0 min 0 W/m 11,1 C 11,7 C 3,6 km/h (1 Bft)
31/12/2011 15:35 11,7 C 96 % 1020,2 hPa 0,0 mm 2,5 km/h (1 Bft) O 270 0 min 0 W/m 11,1 C 11,7 C 7,9 km/h (2 Bft)
31/12/2011 15:40 11,8 C 96 % 1020,2 hPa 0,0 mm 0,4 km/h (0 Bft) SO 225 0 min 0 W/m 11,2 C 11,8 C 0,4 km/h (0 Bft)
31/12/2011 15:45 11,8 C 96 % 1020,2 hPa 0,0 mm 2,2 km/h (1 Bft) S-SO 202 0 min 0 W/m 11,2 C 11,8 C 4,3 km/h (1 Bft)
31/12/2011 15:50 11,8 C 96 % 1020,2 hPa 0,1 mm 2,5 km/h (1 Bft) S-SO 202 0 min 0 W/m 11,2 C 11,8 C 3,6 km/h (1 Bft)
31/12/2011 15:55 11,8 C 96 % 1020,2 hPa 0,0 mm 1,1 km/h (1 Bft) SO 225 0 min 0 W/m 11,2 C 11,8 C 4,3 km/h (1 Bft)
31/12/2011 16:00 11,8 C 96 % 1020,3 hPa 0,0 mm 1,4 km/h (1 Bft) O-SO 247 0 min 0 W/m 11,2 C 11,8 C 1,4 km/h (1 Bft)
31/12/2011 16:05 11,8 C 96 % 1020,2 hPa 0,0 mm 1,1 km/h (1 Bft) O-SO 247 0 min 0 W/m 11,2 C 11,8 C 3,6 km/h (1 Bft)
31/12/2011 16:10 11,8 C 96 % 1020,2 hPa 0,0 mm 2,9 km/h (1 Bft) O 270 0 min 0 W/m 11,2 C 11,8 C 6,5 km/h (2 Bft)
31/12/2011 16:15 11,8 C 96 % 1020,2 hPa 0,0 mm 2,9 km/h (1 Bft) O-SO 247 0 min 0 W/m 11,2 C 11,8 C 6,5 km/h (2 Bft)
31/12/2011 16:20 11,8 C 96 % 1020,3 hPa 0,0 mm 1,4 km/h (1 Bft) SO 225 0 min 0 W/m 11,2 C 11,8 C 4,3 km/h (1 Bft)
31/12/2011 16:25 11,8 C 96 % 1020,4 hPa 0,0 mm 4,7 km/h (1 Bft) O 270 0 min 0 W/m 11,2 C 11,8 C 9,7 km/h (2 Bft)
31/12/2011 16:30 11,8 C 96 % 1020,5 hPa 0,0 mm 2,9 km/h (1 Bft) SO 225 0 min 0 W/m 11,2 C 11,8 C 6,8 km/h (2 Bft)
31/12/2011 16:35 11,8 C 96 % 1020,5 hPa 0,1 mm 0,7 km/h (0 Bft) O-SO 247 0 min 0 W/m 11,2 C 11,8 C 3,2 km/h (1 Bft)
31/12/2011 16:40 11,8 C 96 % 1020,6 hPa 0,0 mm 1,1 km/h (1 Bft) SO 225 0 min 0 W/m 11,2 C 11,8 C 4,3 km/h (1 Bft)
31/12/2011 16:45 11,8 C 96 % 1020,5 hPa 0,0 mm 1,8 km/h (1 Bft) O-SO 247 0 min 0 W/m 11,2 C 11,8 C 6,5 km/h (2 Bft)
31/12/2011 16:50 11,8 C 96 % 1020,6 hPa 0,0 mm 0,4 km/h (0 Bft) O-SO 247 0 min 0 W/m 11,2 C 11,8 C 4,0 km/h (1 Bft)
31/12/2011 16:55 11,8 C 96 % 1020,6 hPa 0,1 mm 1,1 km/h (1 Bft) O 270 0 min 0 W/m 11,2 C 11,8 C 1,1 km/h (1 Bft)
31/12/2011 17:00 11,8 C 96 % 1020,7 hPa 0,0 mm 0,7 km/h (0 Bft) S-SO 202 0 min 0 W/m 11,2 C 11,8 C 4,3 km/h (1 Bft)
31/12/2011 17:05 11,8 C 96 % 1020,6 hPa 0,0 mm 5,0 km/h (1 Bft) O 270 0 min 0 W/m 11,2 C 11,8 C 9,4 km/h (2 Bft)
31/12/2011 17:10 11,8 C 96 % 1020,7 hPa 0,0 mm 0,7 km/h (0 Bft) O-SO 247 0 min 0 W/m 11,2 C 11,8 C 0,7 km/h (0 Bft)
31/12/2011 17:15 11,8 C 96 % 1020,7 hPa 0,1 mm 2,2 km/h (1 Bft) SO 225 0 min 0 W/m 11,2 C 11,8 C 2,9 km/h (1 Bft)
31/12/2011 17:20 11,8 C 96 % 1020,8 hPa 0,0 mm 4,7 km/h (1 Bft) O-SO 247 0 min 0 W/m 11,2 C 11,8 C 10,4 km/h (2 Bft)
31/12/2011 17:25 11,8 C 96 % 1020,7 hPa 0,2 mm 3,2 km/h (1 Bft) O-SO 247 0 min 0 W/m 11,2 C 11,8 C 8,3 km/h (2 Bft)
31/12/2011 17:30 11,8 C 96 % 1020,7 hPa 0,0 mm 1,4 km/h (1 Bft) SO 225 0 min 0 W/m 11,2 C 11,8 C 4,0 km/h (1 Bft)
31/12/2011 17:35 11,8 C 96 % 1020,8 hPa 0,0 mm 0,4 km/h (0 Bft) SO 225 0 min 0 W/m 11,2 C 11,8 C 0,4 km/h (0 Bft)
31/12/2011 17:40 11,8 C 96 % 1020,8 hPa 0,0 mm 0,0 km/h (0 Bft) O-SO 247 0 min 0 W/m 11,2 C 11,8 C 0,0 km/h (0 Bft)
31/12/2011 17:45 11,8 C 96 % 1020,8 hPa 0,0 mm 2,2 km/h (1 Bft) O-SO 247 0 min 0 W/m 11,2 C 11,8 C 7,9 km/h (2 Bft)
31/12/2011 17:50 11,8 C 96 % 1020,9 hPa 0,0 mm 0,7 km/h (0 Bft) O 270 0 min 0 W/m 11,2 C 11,8 C 0,7 km/h (0 Bft)
31/12/2011 17:55 11,8 C 96 % 1020,9 hPa 0,0 mm 5,8 km/h (2 Bft) S-SO 202 0 min 0 W/m 11,2 C 11,8 C 5,8 km/h (2 Bft)
31/12/2011 18:00 11,7 C 96 % 1020,9 hPa 0,1 mm 2,5 km/h (1 Bft) O-SO 247 0 min 0 W/m 11,1 C 11,7 C 6,5 km/h (2 Bft)
31/12/2011 18:05 11,7 C 96 % 1020,9 hPa 0,0 mm 2,9 km/h (1 Bft) O-SO 247 0 min 0 W/m 11,1 C 11,7 C 2,9 km/h (1 Bft)
31/12/2011 18:10 11,7 C 96 % 1020,9 hPa 0,0 mm 4,7 km/h (1 Bft) O-SO 247 0 min 0 W/m 11,1 C 11,7 C 4,7 km/h (1 Bft)
31/12/2011 18:15 11,7 C 96 % 1020,9 hPa 0,0 mm 2,2 km/h (1 Bft) SO 225 0 min 0 W/m 11,1 C 11,7 C 4,0 km/h (1 Bft)
31/12/2011 18:20 11,7 C 96 % 1020,9 hPa 0,0 mm 3,6 km/h (1 Bft) SO 225 0 min 0 W/m 11,1 C 11,7 C 4,3 km/h (1 Bft)
31/12/2011 18:25 11,7 C 96 % 1020,9 hPa 0,0 mm 3,6 km/h (1 Bft) O-SO 247 0 min 0 W/m 11,1 C 11,7 C 4,3 km/h (1 Bft)
31/12/2011 18:30 11,7 C 96 % 1021,0 hPa 0,0 mm 2,2 km/h (1 Bft) SO 225 0 min 0 W/m 11,1 C 11,7 C 7,9 km/h (2 Bft)
31/12/2011 18:35 11,7 C 96 % 1021,0 hPa 0,0 mm 7,2 km/h (2 Bft) O-SO 247 0 min 0 W/m 11,1 C 11,7 C 16,2 km/h (3 Bft)
31/12/2011 18:40 11,8 C 96 % 1021,0 hPa 0,0 mm 4,0 km/h (1 Bft) SO 225 0 min 0 W/m 11,2 C 11,8 C 4,0 km/h (1 Bft)
31/12/2011 18:45 11,7 C 96 % 1021,0 hPa 0,0 mm 5,0 km/h (1 Bft) O-SO 247 0 min 0 W/m 11,1 C 11,7 C 5,0 km/h (1 Bft)
31/12/2011 18:50 11,7 C 96 % 1021,0 hPa 0,0 mm 3,2 km/h (1 Bft) SO 225 0 min 0 W/m 11,1 C 11,7 C 9,7 km/h (2 Bft)
31/12/2011 18:55 11,7 C 96 % 1021,0 hPa 0,0 mm 2,5 km/h (1 Bft) O-SO 247 0 min 0 W/m 11,1 C 11,7 C 7,2 km/h (2 Bft)
31/12/2011 19:00 11,7 C 96 % 1021,0 hPa 0,0 mm 2,9 km/h (1 Bft) S-SO 202 0 min 0 W/m 11,1 C 11,7 C 4,3 km/h (1 Bft)
31/12/2011 19:05 11,7 C 96 % 1021,0 hPa 0,0 mm 1,8 km/h (1 Bft) O-SO 247 0 min 0 W/m 11,1 C 11,7 C 3,6 km/h (1 Bft)
31/12/2011 19:10 11,7 C 96 % 1021,0 hPa 0,0 mm 1,1 km/h (1 Bft) SO 225 0 min 0 W/m 11,1 C 11,7 C 4,0 km/h (1 Bft)
31/12/2011 19:15 11,7 C 96 % 1021,1 hPa 0,0 mm 1,8 km/h (1 Bft) S-SO 202 0 min 0 W/m 11,1 C 11,7 C 7,6 km/h (2 Bft)
31/12/2011 19:20 11,7 C 96 % 1021,0 hPa 0,0 mm 4,7 km/h (1 Bft) SO 225 0 min 0 W/m 11,1 C 11,7 C 7,9 km/h (2 Bft)
31/12/2011 19:25 11,7 C 96 % 1021,0 hPa 0,0 mm 1,8 km/h (1 Bft) SO 225 0 min 0 W/m 11,1 C 11,7 C 3,6 km/h (1 Bft)
31/12/2011 19:30 11,6 C 96 % 1021,1 hPa 0,0 mm 3,2 km/h (1 Bft) S-SO 202 0 min 0 W/m 11,0 C 11,6 C 6,5 km/h (2 Bft)
31/12/2011 19:35 11,7 C 96 % 1021,1 hPa 0,0 mm 0,4 km/h (0 Bft) S-SO 202 0 min 0 W/m 11,1 C 11,7 C 4,0 km/h (1 Bft)
31/12/2011 19:40 11,6 C 96 % 1021,1 hPa 0,1 mm 7,2 km/h (2 Bft) O 270 0 min 0 W/m 11,0 C 11,6 C 14,0 km/h (3 Bft)
31/12/2011 19:45 11,6 C 96 % 1021,1 hPa 0,0 mm 0,4 km/h (0 Bft) O-SO 247 0 min 0 W/m 11,0 C 11,6 C 4,3 km/h (1 Bft)
31/12/2011 19:50 11,6 C 96 % 1021,2 hPa 0,0 mm 5,0 km/h (1 Bft) SO 225 0 min 0 W/m 11,0 C 11,6 C 13,7 km/h (3 Bft)
31/12/2011 19:55 11,6 C 96 % 1021,2 hPa 0,0 mm 2,2 km/h (1 Bft) S-SE 157 0 min 0 W/m 11,0 C 11,6 C 12,6 km/h (3 Bft)
31/12/2011 20:00 11,6 C 96 % 1021,2 hPa 0,0 mm 6,8 km/h (2 Bft) S-SO 202 0 min 0 W/m 11,0 C 11,6 C 12,6 km/h (3 Bft)
31/12/2011 20:05 11,6 C 96 % 1021,2 hPa 0,0 mm 6,8 km/h (2 Bft) N 360 0 min 0 W/m 11,0 C 11,6 C 6,8 km/h (2 Bft)
31/12/2011 20:10 11,6 C 96 % 1021,2 hPa 0,0 mm 1,1 km/h (1 Bft) O-SO 247 0 min 0 W/m 11,0 C 11,6 C 1,1 km/h (1 Bft)
31/12/2011 20:15 11,6 C 96 % 1021,2 hPa 0,0 mm 4,3 km/h (1 Bft) O 270 0 min 0 W/m 11,0 C 11,6 C 9,7 km/h (2 Bft)
31/12/2011 20:20 11,6 C 96 % 1021,2 hPa 0,0 mm 4,3 km/h (1 Bft) O-SO 247 0 min 0 W/m 11,0 C 11,6 C 10,8 km/h (2 Bft)
31/12/2011 20:25 11,6 C 96 % 1021,2 hPa 0,0 mm 0,0 km/h (0 Bft) O 270 0 min 0 W/m 11,0 C 11,6 C 0,0 km/h (0 Bft)
31/12/2011 20:30 11,5 C 96 % 1021,1 hPa 0,0 mm 4,0 km/h (1 Bft) O-SO 247 0 min 0 W/m 10,9 C 11,5 C 6,5 km/h (2 Bft)
31/12/2011 20:35 11,5 C 96 % 1021,2 hPa 0,0 mm 0,7 km/h (0 Bft) O-SO 247 0 min 0 W/m 10,9 C 11,5 C 4,0 km/h (1 Bft)
31/12/2011 20:40 11,5 C 96 % 1021,2 hPa 0,0 mm 2,5 km/h (1 Bft) O-SO 247 0 min 0 W/m 10,9 C 11,5 C 2,9 km/h (1 Bft)
31/12/2011 20:45 11,5 C 96 % 1021,2 hPa 0,0 mm 1,8 km/h (1 Bft) SO 225 0 min 0 W/m 10,9 C 11,5 C 3,2 km/h (1 Bft)
31/12/2011 20:50 11,5 C 96 % 1021,1 hPa 0,0 mm 3,6 km/h (1 Bft) SO 225 0 min 0 W/m 10,9 C 11,5 C 9,0 km/h (2 Bft)
31/12/2011 20:55 11,5 C 96 % 1021,2 hPa 0,0 mm 3,6 km/h (1 Bft) SO 225 0 min 0 W/m 10,9 C 11,5 C 6,5 km/h (2 Bft)
31/12/2011 21:00 11,5 C 96 % 1021,2 hPa 0,0 mm 2,2 km/h (1 Bft) O 270 0 min 0 W/m 10,9 C 11,5 C 6,1 km/h (2 Bft)
31/12/2011 21:05 11,5 C 96 % 1021,2 hPa 0,0 mm 0,7 km/h (0 Bft) O-SO 247 0 min 0 W/m 10,9 C 11,5 C 4,0 km/h (1 Bft)
31/12/2011 21:10 11,5 C 96 % 1021,2 hPa 0,0 mm 0,4 km/h (0 Bft) O 270 0 min 0 W/m 10,9 C 11,5 C 2,9 km/h (1 Bft)
31/12/2011 21:15 11,4 C 96 % 1021,2 hPa 0,0 mm 6,1 km/h (2 Bft) SO 225 0 min 0 W/m 10,8 C 11,4 C 12,6 km/h (3 Bft)
31/12/2011 21:20 11,4 C 96 % 1021,2 hPa 0,0 mm 1,4 km/h (1 Bft) O-SO 247 0 min 0 W/m 10,8 C 11,4 C 5,0 km/h (1 Bft)
31/12/2011 21:25 11,4 C 96 % 1021,2 hPa 0,0 mm 5,8 km/h (2 Bft) SO 225 0 min 0 W/m 10,8 C 11,4 C 16,6 km/h (3 Bft)
31/12/2011 21:30 11,5 C 96 % 1021,3 hPa 0,0 mm 1,4 km/h (1 Bft) SO 225 0 min 0 W/m 10,9 C 11,5 C 4,3 km/h (1 Bft)
31/12/2011 21:35 11,4 C 96 % 1021,2 hPa 0,0 mm 4,0 km/h (1 Bft) SO 225 0 min 0 W/m 10,8 C 11,4 C 9,7 km/h (2 Bft)
31/12/2011 21:40 11,4 C 96 % 1021,1 hPa 0,0 mm 5,8 km/h (2 Bft) O-SO 247 0 min 0 W/m 10,8 C 11,4 C 8,6 km/h (2 Bft)
31/12/2011 21:45 11,4 C 96 % 1021,1 hPa 0,0 mm 5,0 km/h (1 Bft) SO 225 0 min 0 W/m 10,8 C 11,4 C 5,0 km/h (1 Bft)
31/12/2011 21:50 11,4 C 96 % 1021,1 hPa 0,0 mm 0,7 km/h (0 Bft) SO 225 0 min 0 W/m 10,8 C 11,4 C 4,3 km/h (1 Bft)
31/12/2011 21:55 11,4 C 96 % 1021,1 hPa 0,0 mm 1,8 km/h (1 Bft) SO 225 0 min 0 W/m 10,8 C 11,4 C 4,3 km/h (1 Bft)
31/12/2011 22:00 11,4 C 96 % 1021,1 hPa 0,0 mm 1,1 km/h (1 Bft) SO 225 0 min 0 W/m 10,8 C 11,4 C 3,6 km/h (1 Bft)
31/12/2011 22:05 11,4 C 96 % 1021,1 hPa 0,0 mm 5,4 km/h (2 Bft) S-SO 202 0 min 0 W/m 10,8 C 11,4 C 8,6 km/h (2 Bft)
31/12/2011 22:10 11,4 C 96 % 1021,1 hPa 0,0 mm 4,7 km/h (1 Bft) O-SO 247 0 min 0 W/m 10,8 C 11,4 C 11,9 km/h (2 Bft)
31/12/2011 22:15 11,4 C 96 % 1021,2 hPa 0,0 mm 3,6 km/h (1 Bft) S-SO 202 0 min 0 W/m 10,8 C 11,4 C 3,6 km/h (1 Bft)
31/12/2011 22:20 11,4 C 96 % 1021,1 hPa 0,0 mm 3,2 km/h (1 Bft) O 270 0 min 0 W/m 10,8 C 11,4 C 6,5 km/h (2 Bft)
31/12/2011 22:25 11,4 C 96 % 1021,1 hPa 0,0 mm 0,7 km/h (0 Bft) O-SO 247 0 min 0 W/m 10,8 C 11,4 C 4,0 km/h (1 Bft)
31/12/2011 22:30 11,4 C 96 % 1021,1 hPa 0,0 mm 2,9 km/h (1 Bft) O-SO 247 0 min 0 W/m 10,8 C 11,4 C 6,5 km/h (2 Bft)
31/12/2011 22:35 11,4 C 96 % 1021,0 hPa 0,0 mm 2,9 km/h (1 Bft) O 270 0 min 0 W/m 10,8 C 11,4 C 10,8 km/h (2 Bft)
31/12/2011 22:40 11,4 C 96 % 1021,0 hPa 0,0 mm 3,2 km/h (1 Bft) SO 225 0 min 0 W/m 10,8 C 11,4 C 9,7 km/h (2 Bft)
31/12/2011 22:45 11,4 C 96 % 1021,0 hPa 0,0 mm 2,2 km/h (1 Bft) SO 225 0 min 0 W/m 10,8 C 11,4 C 4,0 km/h (1 Bft)
31/12/2011 22:50 11,4 C 96 % 1020,9 hPa 0,0 mm 2,2 km/h (1 Bft) O-SO 247 0 min 0 W/m 10,8 C 11,4 C 4,0 km/h (1 Bft)
31/12/2011 22:55 11,4 C 96 % 1020,9 hPa 0,0 mm 4,7 km/h (1 Bft) SO 225 0 min 0 W/m 10,8 C 11,4 C 8,3 km/h (2 Bft)
31/12/2011 23:00 11,4 C 96 % 1020,9 hPa 0,0 mm 5,8 km/h (2 Bft) S-SO 202 0 min 0 W/m 10,8 C 11,4 C 8,6 km/h (2 Bft)
31/12/2011 23:05 11,4 C 96 % 1021,1 hPa 0,0 mm 4,3 km/h (1 Bft) SO 225 0 min 0 W/m 10,8 C 11,4 C 6,8 km/h (2 Bft)
31/12/2011 23:10 11,4 C 96 % 1021,1 hPa 0,0 mm 3,2 km/h (1 Bft) SO 225 0 min 0 W/m 10,8 C 11,4 C 6,5 km/h (2 Bft)
31/12/2011 23:15 11,4 C 96 % 1021,0 hPa 0,0 mm 2,5 km/h (1 Bft) SO 225 0 min 0 W/m 10,8 C 11,4 C 4,0 km/h (1 Bft)
31/12/2011 23:20 11,4 C 96 % 1021,0 hPa 0,0 mm 0,0 km/h (0 Bft) O-SO 247 0 min 0 W/m 10,8 C 11,4 C 0,0 km/h (0 Bft)
31/12/2011 23:25 11,4 C 96 % 1021,0 hPa 0,0 mm 2,9 km/h (1 Bft) SO 225 0 min 0 W/m 10,8 C 11,4 C 3,6 km/h (1 Bft)
31/12/2011 23:30 11,4 C 96 % 1021,0 hPa 0,0 mm 2,2 km/h (1 Bft) O-SO 247 0 min 0 W/m 10,8 C 11,4 C 4,0 km/h (1 Bft)
31/12/2011 23:35 11,4 C 96 % 1021,0 hPa 0,1 mm 0,7 km/h (0 Bft) SO 225 0 min 0 W/m 10,8 C 11,4 C 0,7 km/h (0 Bft)
31/12/2011 23:40 11,4 C 96 % 1021,0 hPa 0,0 mm 4,0 km/h (1 Bft) S-SO 202 0 min 0 W/m 10,8 C 11,4 C 6,5 km/h (2 Bft)
31/12/2011 23:45 11,4 C 96 % 1021,1 hPa 0,0 mm 1,4 km/h (1 Bft) O-SO 247 0 min 0 W/m 10,8 C 11,4 C 3,2 km/h (1 Bft)
31/12/2011 23:50 11,4 C 96 % 1021,0 hPa 0,0 mm 4,0 km/h (1 Bft) SO 225 0 min 0 W/m 10,8 C 11,4 C 10,4 km/h (2 Bft)
31/12/2011 23:55 11,4 C 96 % 1021,1 hPa 0,0 mm 1,1 km/h (1 Bft) S-SO 202 0 min 0 W/m 10,8 C 11,4 C 2,9 km/h (1 Bft)
_ Min-Heure 00:10 23:55 06:15 - 23:20 - - - - 00:10 00:10 23:20
Minimum _ 10,2 C 96 % 1019,2 hPa - 0,0 km/h (0 Bft) - - - - 9,6 C 10,2 C 0,0 km/h (0 Bft)
_ Max-Heure 13:35 23:55 11:30 17:25 02:50 - - 23:55 23:55 13:35 13:35 07:05
Maximum _ 11,9 C 96 % 1021,4 hPa 0,2 mm 11,2 km/h
O-SO (2 Bft)
- - 0 min 0 W/m 11,3 C 11,9 C 25,9 km/h
O-SO (4 Bft)
Moyenne _ 11,2 C 96 % 1020,5 hPa #3,6 mm 3,8 km/h (1 Bft) O-SO - #0 min. 0 W/m 10,6 C 11,2 C 7,7 km/h (2 Bft)
Saint Bonnet de Bellac- Haute Vienne - France